| time (UTC) | temp F | wind direction | speed MPH | gust MPH | rain 1hr in | rain 24hr in | rain mn in | humidity % | barometer mb |
| 20260504034518 | 46 | 277 | 0.0 | 0.0 | 0.00 | 0.00 | 0.00 | 53 | 1011.9 |
| 20260504033023 | 47 | 276 | 0.0 | 0.0 | 0.00 | 0.00 | 0.00 | 51 | 1011.9 |
| 20260504031528 | 48 | 276 | 0.0 | 0.0 | 0.00 | 0.00 | 0.00 | 50 | 1011.8 |
| 20260504030029 | 47 | 277 | 0.0 | 0.0 | 0.00 | 0.00 | 0.00 | 49 | 1011.9 |
| 20260504024515 | 47 | 277 | 0.0 | 0.0 | 0.00 | 0.00 | 0.00 | 48 | 1011.8 |
| 20260504023018 | 47 | 277 | 0.0 | 0.0 | 0.00 | 0.00 | 0.00 | 47 | 1011.8 |
| 20260504021521 | 48 | 276 | 0.0 | 0.0 | 0.00 | 0.00 | 0.00 | 46 | 1011.7 |
| 20260504020026 | 48 | 276 | 0.0 | 0.0 | 0.00 | 0.00 | 0.00 | 44 | 1011.7 |
| 20260504014528 | 49 | 321 | 0.0 | 0.0 | 0.00 | 0.00 | 0.00 | 43 | 1011.6 |
| 20260504013016 | 50 | 338 | 0.0 | 0.0 | 0.00 | 0.00 | 0.00 | 40 | 1011.4 |
| 20260504011518 | 50 | 338 | 0.0 | 0.0 | 0.00 | 0.00 | 0.00 | 41 | 1011.2 |
| 20260504010026 | 50 | 338 | 0.0 | 0.0 | 0.00 | 0.00 | 0.00 | 40 | 1011.0 |
| 20260504004528 | 50 | 337 | 0.0 | 0.0 | 0.00 | 0.00 | 0.00 | 41 | 1010.9 |
| 20260504003028 | 50 | 338 | 0.0 | 0.0 | 0.00 | 0.00 | 0.00 | 42 | 1010.6 |
| 20260504001519 | 51 | 338 | 0.0 | 0.0 | 0.00 | 0.00 | 0.00 | 41 | 1010.4 |
| 20260504000024 | 51 | 338 | 0.0 | 0.0 | 0.00 | 0.00 | 0.00 | 39 | 1010.3 |
| 20260503234527 | 52 | 317 | 0.0 | 3.0 | 0.00 | 0.00 | 0.00 | 37 | 1010.1 |
| 20260503233025 | 52 | 15 | 0.0 | 5.0 | 0.00 | 0.00 | 0.00 | 36 | 1010.0 |
| 20260503231516 | 53 | 25 | 2.0 | 9.0 | 0.00 | 0.00 | 0.00 | 35 | 1010.0 |
| 20260503230018 | 54 | 322 | 3.0 | 10.0 | 0.00 | 0.00 | 0.00 | 34 | 1009.9 |
| 20260503224522 | 54 | 128 | 2.0 | 8.0 | 0.00 | 0.00 | 0.00 | 35 | 1009.8 |
| 20260503223005 | 54 | 348 | 3.0 | 11.0 | 0.00 | 0.00 | 0.00 | 36 | 1009.9 |
| 20260503221507 | 54 | 360 | 4.0 | 15.0 | 0.00 | 0.00 | 0.00 | 35 | 1009.8 |
| 20260503220014 | 54 | 26 | 5.0 | 15.0 | 0.00 | 0.00 | 0.00 | 36 | 1009.9 |
| 20260503214516 | 55 | 352 | 2.0 | 14.0 | 0.00 | 0.00 | 0.00 | 37 | 1009.7 |
| 20260503213022 | 54 | 311 | 2.0 | 17.0 | 0.00 | 0.00 | 0.00 | 37 | 1009.7 |
| 20260503211505 | 54 | 331 | 4.0 | 15.0 | 0.00 | 0.00 | 0.00 | 37 | 1009.9 |
| 20260503210015 | 54 | 319 | 4.0 | 15.0 | 0.00 | 0.00 | 0.00 | 38 | 1009.8 |
| 20260503204514 | 54 | 51 | 6.0 | 16.0 | 0.00 | 0.00 | 0.00 | 38 | 1009.7 |
| 20260503203021 | 54 | 27 | 6.0 | 15.0 | 0.00 | 0.00 | 0.00 | 38 | 1009.8 |
| 20260503201524 | 53 | 109 | 4.0 | 21.0 | 0.00 | 0.00 | 0.00 | 38 | 1009.9 |
| 20260503200007 | 53 | 332 | 7.0 | 22.0 | 0.00 | 0.00 | 0.00 | 38 | 1009.7 |
| 20260503194510 | 54 | 304 | 6.0 | 19.0 | 0.00 | 0.00 | 0.00 | 40 | 1009.9 |
| 20260503193016 | 53 | 288 | 4.0 | 18.0 | 0.00 | 0.00 | 0.00 | 40 | 1009.8 |
| 20260503191521 | 52 | 305 | 5.0 | 17.0 | 0.00 | 0.00 | 0.00 | 39 | 1009.9 |
| 20260503190040 | 54 | 360 | 5.0 | 19.0 | 0.00 | 0.00 | 0.00 | 38 | 1009.9 |
| 20260503184508 | 54 | 242 | 7.0 | 18.0 | 0.00 | 0.00 | 0.00 | 38 | 1009.8 |
| 20260503183016 | 52 | 34 | 6.0 | 18.0 | 0.00 | 0.00 | 0.00 | 40 | 1009.9 |
| 20260503181515 | 51 | 48 | 8.0 | 20.0 | 0.00 | 0.00 | 0.00 | 40 | 1009.8 |
| 20260503180036 | 51 | 57 | 8.0 | 20.0 | 0.00 | 0.00 | 0.00 | 42 | 1009.7 |
| 20260503174526 | 51 | 37 | 7.0 | 21.0 | 0.00 | 0.00 | 0.00 | 39 | 1009.7 |
| 20260503173011 | 52 | 13 | 5.0 | 15.0 | 0.00 | 0.00 | 0.00 | 43 | 1009.8 |
| 20260503171521 | 51 | 333 | 5.0 | 14.0 | 0.00 | 0.00 | 0.00 | 44 | 1010.0 |
| 20260503081536 | 39 | 41 | 2.0 | 12.0 | 0.00 | 0.04 | 0.00 | 67 | 1010.0 |
| 20260503071528 | 41 | 69 | 3.0 | 11.0 | 0.00 | 0.04 | 0.00 | 62 | 1010.3 |
| 20260503054536 | 43 | 25 | 2.0 | 11.0 | 0.00 | 0.04 | 0.00 | 57 | 1010.9 |
| 20260503053026 | 44 | 352 | 7.0 | 18.0 | 0.00 | 0.04 | 0.00 | 56 | 1011.0 |
| 20260503051521 | 44 | 24 | 4.0 | 8.0 | 0.00 | 0.04 | 0.00 | 58 | 1011.3 |
| 20260503050024 | 44 | 11 | 5.0 | 11.0 | 0.00 | 0.04 | 0.00 | 57 | 1011.3 |
| 20260503044526 | 45 | 19 | 3.0 | 8.0 | 0.00 | 0.04 | 0.00 | 56 | 1011.4 |
| 20260503043028 | 45 | 59 | 3.0 | 9.0 | 0.00 | 0.04 | 0.00 | 56 | 1011.3 |
| 20260503041528 | 45 | 28 | 3.0 | 12.0 | 0.00 | 0.04 | 0.00 | 55 | 1011.4 |
| 20260503040021 | 46 | 13 | 5.0 | 12.0 | 0.00 | 0.04 | 0.00 | 54 | 1011.4 |